When you browse on this site, cookies collect data to enhance your experience and personalize the content and advertising you see.
Visit our Privacy Policy to learn more. By continuing to use the site, you agree to this use of cookies and data.
  • En Estados Unidos
  • Lista de países
  • Para 7 días
  • Temperatura del agua
  • Mapa Satelital
  • El tiempo en el mapa
  • Informadores
  • user-avatar
    Iniciar sesión

    Tiempo cada hora Encamp

    Hoy, 11 Diciembre, Martes

    Tiempo Temperatura Precipitaciones Viento Presión Humedad
    00:00 0°C° 0 mm 1 mps 627 mmHg 72%
    01:00 0°C° 0 mm 1 mps 627 mmHg 72%
    02:00 0°C° 0 mm 1 mps 627 mmHg 72%
    03:00 0°C° 0 mm 1 mps 626 mmHg 71%
    04:00 0°C° 0 mm 1 mps 626 mmHg 70%
    05:00 0°C° 0 mm 1 mps 626 mmHg 69%
    06:00 0°C° 0 mm 1 mps 625 mmHg 68%
    07:00 +1°C° 0 mm 1 mps 626 mmHg 64%
    08:00 +2°C° 0 mm 1 mps 626 mmHg 59%
    09:00 +3°C° 0 mm 0 mps 627 mmHg 54%
    10:00 +5°C° 0 mm 1 mps 627 mmHg 51%
    11:00 +6°C° 0 mm 1 mps 627 mmHg 48%
    12:00 +8°C° 0 mm 1 mps 627 mmHg 44%
    13:00 +7°C° 0 mm 1 mps 627 mmHg 49%
    14:00 +7°C° 0 mm 1 mps 626 mmHg 53%
    15:00 +6°C° 0 mm 1 mps 625 mmHg 58%
    16:00 +5°C° 0 mm 1 mps 625 mmHg 62%
    17:00 +3°C° 0 mm 1 mps 624 mmHg 67%
    18:00 +2°C° 0 mm 1 mps 624 mmHg 71%
    19:00 +2°C° 0 mm 1 mps 624 mmHg 68%
    20:00 +2°C° 0 mm 1 mps 624 mmHg 65%
    21:00 +2°C° 0 mm 1 mps 624 mmHg 63%
    22:00 +2°C° 0 mm 1 mps 624 mmHg 61%
    23:00 +2°C° 0 mm 1 mps 624 mmHg 60%

    Mañana, 12 Diciembre, Miércoles

    Tiempo Temperatura Precipitaciones Viento Presión Humedad
    00:00 +2°C° 0 mm 1 mps 624 mmHg 59%
    01:00 +1°C° 0 mm 2 mps 624 mmHg 59%
    02:00 -1°C° 0 mm 2 mps 624 mmHg 60%
    03:00 -1°C° 0 mm 2 mps 624 mmHg 61%
    04:00 -1°C° 0 mm 2 mps 624 mmHg 63%
    05:00 -1°C° 0 mm 2 mps 623 mmHg 64%
    06:00 -1°C° 0 mm 2 mps 623 mmHg 66%
    07:00 -1°C° 0 mm 2 mps 624 mmHg 68%
    08:00 +1°C° 0 mm 2 mps 624 mmHg 70%
    09:00 +2°C° 0 mm 2 mps 625 mmHg 73%
    10:00 +3°C° 0.1 mm 2 mps 625 mmHg 72%
    11:00 +3°C° 0.1 mm 2 mps 624 mmHg 71%
    12:00 +5°C° 0.1 mm 1 mps 624 mmHg 70%
    13:00 +4°C° 0.1 mm 1 mps 624 mmHg 72%
    14:00 +3°C° 0.1 mm 2 mps 623 mmHg 74%
    15:00 +2°C° 0.1 mm 2 mps 623 mmHg 76%
    16:00 +2°C° 0 mm 1 mps 622 mmHg 80%
    17:00 +1°C° 0 mm 1 mps 622 mmHg 85%
    18:00 0°C° 0 mm 1 mps 622 mmHg 89%
    19:00 0°C° 0 mm 1 mps 621 mmHg 88%
    20:00 0°C° 0 mm 1 mps 621 mmHg 87%
    21:00 -1°C° 0 mm 1 mps 620 mmHg 86%
    22:00 -1°C° 0 mm 1 mps 620 mmHg 86%
    23:00 0°C° 0 mm 1 mps 620 mmHg 85%

    Pasado mañana, 13 Diciembre, Jueves

    Tiempo Temperatura Precipitaciones Viento Presión Humedad
    00:00 0°C° 0 mm 1 mps 620 mmHg 85%
    01:00 0°C° 0.1 mm 1 mps 619 mmHg 87%
    02:00 0°C° 0.1 mm 1 mps 619 mmHg 88%
    03:00 0°C° 0.1 mm 1 mps 618 mmHg 90%
    04:00 0°C° 0 mm 1 mps 618 mmHg 90%
    05:00 0°C° 0 mm 1 mps 617 mmHg 90%
    06:00 0°C° 0 mm 1 mps 616 mmHg 90%
    07:00 0°C° 0.1 mm 1 mps 617 mmHg 87%
    08:00 +1°C° 0.1 mm 1 mps 617 mmHg 83%
    09:00 +1°C° 0.1 mm 1 mps 617 mmHg 79%
    10:00 +2°C° 0.4 mm 1 mps 616 mmHg 80%
    11:00 +2°C° 0.4 mm 1 mps 616 mmHg 81%
    12:00 +2°C° 0.4 mm 1 mps 616 mmHg 82%
    13:00 +2°C° 0.9 mm 1 mps 616 mmHg 85%
    14:00 +2°C° 0.9 mm 1 mps 616 mmHg 88%
    15:00 +1°C° 0.9 mm 1 mps 615 mmHg 92%
    16:00 -1°C° 0.8 mm 2 mps 615 mmHg 92%
    17:00 -1°C° 0.8 mm 2 mps 616 mmHg 92%
    18:00 -2°C° 0.8 mm 2 mps 616 mmHg 92%
    19:00 -2°C° 0.4 mm 2 mps 616 mmHg 91%
    20:00 -2°C° 0.4 mm 2 mps 616 mmHg 90%
    21:00 -2°C° 0.4 mm 3 mps 617 mmHg 89%
    22:00 -2°C° 0.3 mm 3 mps 617 mmHg 88%
    23:00 -2°C° 0.3 mm 3 mps 617 mmHg 88%

    14 Diciembre, Viernes

    Tiempo Temperatura Precipitaciones Viento Presión Humedad
    00:00 -4°C° 0.3 mm 3 mps 617 mmHg 87%
    01:00 -4°C° 0.2 mm 3 mps 618 mmHg 87%
    02:00 -4°C° 0.2 mm 3 mps 618 mmHg 86%
    03:00 -4°C° 0.2 mm 3 mps 618 mmHg 86%
    04:00 -4°C° 0.1 mm 3 mps 619 mmHg 86%
    05:00 -4°C° 0.1 mm 3 mps 619 mmHg 86%
    06:00 -4°C° 0.1 mm 3 mps 620 mmHg 85%
    07:00 -2°C° 0 mm 3 mps 621 mmHg 84%
    08:00 -2°C° 0 mm 3 mps 622 mmHg 83%
    09:00 -1°C° 0 mm 3 mps 622 mmHg 81%
    10:00 0°C° 0 mm 3 mps 623 mmHg 78%
    11:00 +1°C° 0 mm 3 mps 624 mmHg 75%
    12:00 +2°C° 0 mm 3 mps 624 mmHg 72%
    13:00 +2°C° 0 mm 3 mps 624 mmHg 72%
    14:00 +1°C° 0 mm 3 mps 624 mmHg 72%
    15:00 +1°C° 0 mm 3 mps 625 mmHg 73%
    16:00 0°C° 0 mm 3 mps 625 mmHg 75%
    17:00 -1°C° 0 mm 3 mps 625 mmHg 78%
    18:00 -2°C° 0 mm 3 mps 625 mmHg 80%
    19:00 -2°C° 0 mm 3 mps 625 mmHg 81%
    20:00 -2°C° 0 mm 3 mps 625 mmHg 82%
    21:00 -2°C° 0 mm 2 mps 626 mmHg 83%
    22:00 -2°C° 0 mm 2 mps 626 mmHg 83%
    23:00 -3°C° 0 mm 2 mps 626 mmHg 84%

    15 Diciembre, Sábado

    Tiempo Temperatura Precipitaciones Viento Presión Humedad
    00:00 -3°C° 0 mm 2 mps 626 mmHg 85%
    01:00 -3°C° 0 mm 2 mps 625 mmHg 84%
    02:00 -4°C° 0 mm 2 mps 625 mmHg 84%
    03:00 -4°C° 0 mm 2 mps 625 mmHg 84%
    04:00 -4°C° 0 mm 2 mps 625 mmHg 82%
    05:00 -4°C° 0 mm 2 mps 625 mmHg 81%
    06:00 -4°C° 0 mm 2 mps 625 mmHg 80%
    07:00 -3°C° 0 mm 2 mps 626 mmHg 76%
    08:00 -2°C° 0 mm 2 mps 626 mmHg 72%
    09:00 +1°C° 0 mm 1 mps 627 mmHg 67%
    10:00 +3°C° 0 mm 1 mps 628 mmHg 65%
    11:00 +5°C° 0 mm 1 mps 628 mmHg 62%
    12:00 +6°C° 0 mm 1 mps 628 mmHg 59%
    13:00 +6°C° 0 mm 1 mps 628 mmHg 62%
    14:00 +5°C° 0 mm 1 mps 628 mmHg 66%
    15:00 +5°C° 0 mm 1 mps 628 mmHg 69%
    16:00 +4°C° 0 mm 1 mps 627 mmHg 70%
    17:00 +3°C° 0 mm 1 mps 627 mmHg 71%
    18:00 +1°C° 0 mm 1 mps 627 mmHg 71%
    19:00 +2°C° 0.1 mm 1 mps 627 mmHg 69%
    20:00 +2°C° 0.1 mm 1 mps 627 mmHg 68%
    21:00 +3°C° 0.1 mm 1 mps 628 mmHg 66%
    22:00 +3°C° 0.1 mm 1 mps 627 mmHg 69%
    23:00 +3°C° 0.1 mm 1 mps 627 mmHg 72%

    16 Diciembre, Domingo

    Tiempo Temperatura Precipitaciones Viento Presión Humedad
    00:00 +3°C° 0.1 mm 1 mps 627 mmHg 75%
    01:00 +3°C° 0 mm 1 mps 627 mmHg 77%
    02:00 +3°C° 0 mm 1 mps 627 mmHg 79%
    03:00 +3°C° 0 mm 1 mps 627 mmHg 80%
    04:00 +3°C° 0 mm 1 mps 627 mmHg 82%
    05:00 +3°C° 0 mm 1 mps 627 mmHg 83%
    06:00 +3°C° 0 mm 1 mps 627 mmHg 85%
    07:00 +4°C° 0 mm 1 mps 628 mmHg 85%
    08:00 +4°C° 0 mm 1 mps 628 mmHg 85%
    09:00 +5°C° 0 mm 1 mps 629 mmHg 85%
    10:00 +6°C° 0 mm 1 mps 629 mmHg 82%
    11:00 +7°C° 0 mm 1 mps 629 mmHg 79%
    12:00 +8°C° 0 mm 1 mps 629 mmHg 76%
    13:00 +7°C° 0 mm 1 mps 629 mmHg 78%
    14:00 +7°C° 0 mm 1 mps 629 mmHg 81%
    15:00 +7°C° 0 mm 1 mps 629 mmHg 83%
    16:00 +6°C° 0.1 mm 1 mps 629 mmHg 86%
    17:00 +5°C° 0.1 mm 1 mps 629 mmHg 89%
    18:00 +3°C° 0.1 mm 1 mps 628 mmHg 92%
    19:00 +3°C° 0.1 mm 1 mps 629 mmHg 93%
    20:00 +3°C° 0.1 mm 1 mps 629 mmHg 93%
    21:00 +3°C° 0.1 mm 1 mps 629 mmHg 93%
    22:00 +3°C° 0.1 mm 1 mps 629 mmHg 94%
    23:00 +3°C° 0.1 mm 1 mps 629 mmHg 94%
    Mostrar más